Regional Weather Roundup
Issued by NWS Northern Indiana

Home | Current Version | Previous Version | Graphics & Text | Print | Product List | Glossary On
Versions: 1 2 3 4 5 6 7 8 9 10 11 12 13 14 15 16 17 18 19 20 21 22 23 24 25 26 27 28 29 30 31 32 33 34 35 36 37 38 39 40 41 42 43 44 45 46 47 48 49 50
000
ASUS43 KIWX 291910
RWRIWX

KIWX WEATHER ROUNDUP
NATIONAL WEATHER SERVICE NORTHERN INDIANA
300 PM EDT FRI MAY 29 2015

NOTE: "FAIR" INDICATES FEW OR NO CLOUDS BELOW 12,000 FEET WITH NO
SIGNIFICANT WEATHER AND/OR OBSTRUCTIONS TO VISIBILITY.

* THESE STATIONS ARE NOT UNDER NWS QUALITY CONTROL. THEY ALSO MAY NOT
  REPORT WEATHER SUCH AS PRECIPITATION OR FOG.

INZ001>027-292000-
NORTHERN INDIANA

CITY           SKY/WX    TMP DP  RH WIND       PRES   REMARKS
GARY*          PTSUNNY   81  66  61 S7        29.99F
VALPARAISO     PTSUNNY   79  69  71 S12       30.01F
MICHIGAN CITY* CLOUDY    75  68  78 S5        30.02F
LAPORTE*       PTSUNNY   77  69  75 W5        30.02F
KNOX*          PTSUNNY   81  61  50 S18       30.01F
SOUTH BEND     PTSUNNY   81  63  54 S16G24    30.02F
ELKHART*       MOSUNNY   82  61  47 S8G16     30.02F
GOSHEN         MOSUNNY   83  64  52 S18G25    30.02F
MONTICELLO*    PTSUNNY   83  67  58 S14G22    30.02F
LOGANSPORT*    PTSUNNY   84  55  37 S16       30.04F
ROCHESTER*     MOSUNNY   84  64  51 S12       30.04F
WARSAW*        MOSUNNY   82  64  54 S6        30.04F
ANGOLA*        MOSUNNY   84  81  89 S10       30.06F HX  98
FORT WAYNE     PTSUNNY   83  64  52 SW12      30.06F
HUNTINGTON*    PTSUNNY   82  63  53 S8G16     30.05F
PERU/GRISSOM   MOSUNNY   85  65  50 S18       30.03F
MARION*        PTSUNNY   83  60  45 S14G22    30.07F

$$
INZ028>050-292000-
CENTRAL INDIANA

CITY           SKY/WX    TMP DP  RH WIND       PRES   REMARKS
LAFAYETTE      MOSUNNY   82  62  50 SW8G24    30.02F
KOKOMO*        CLOUDY    79  66  65 SW20G31   30.06S
MUNCIE*        HVY RAIN  73  69  87 W15G25    30.08F FOG
INDIANAPOLIS   PTSUNNY   83  65  54 S16       30.06F

$$
MIZ043>046-050>051-056>058-064>065-071>073-077>080-292000-
SOUTHWEST LOWER MICHIGAN

CITY           SKY/WX    TMP DP  RH WIND       PRES   REMARKS
BATTLE CREEK   MOSUNNY   84  63  49 SW13G20   30.03F
BENTON HARBOR  RAIN      72  67  84 SW12      30.02R
COLDWATER*     PTSUNNY   80  62  53 S10G16    30.05F
HILLSDALE*     MOSUNNY   82  65  56 S10G16    30.07F
HOLLAND        PTSUNNY   81  65  58 W8        30.00F
GRAND RAPIDS   PTSUNNY   81  64  56 W6        30.01F
KALAMAZOO      MOSUNNY   82  62  50 S14G23    30.02F
STURGIS*       MOSUNNY   82  63  51 S13       30.03F
THREE RIVERS*  FAIR      85  59  42 S13G20    30.03F

$$
OHZ001>008-015>018-024>025-292000-
NORTHWEST OHIO

CITY           SKY/WX    TMP DP  RH WIND       PRES   REMARKS
WAUSEON*       FAIR      82  66  57 SW15G22   30.07F
DEFIANCE       PTSUNNY   82  64  54 S13       30.07F
FINDLAY        MOSUNNY   82  69  64 S16       30.09F
TOLEDO EXPRESS PTSUNNY   81  65  58 S13G21    30.07F
TOLEDO METCALF MOSUNNY   81  67  62 S12G23    30.09F
LIMA           PTSUNNY   81  65  58 SW16G25   30.10F

$$
AND FOR LAKE MICHIGAN COASTAL AND OPEN LAKE BUOY OBSERVATIONS

STATION/POSITION TEMP    WIND        PRES    VSBY  WAVE
                 AIR SEA DIR/SP/G                  HT/PER
                 (F)     (DEG/KT/KT) (MB)    (MI)  (FT/S)
CALUMET HARBOR    74     200/  3/  5   N/A
MICHIGAN CITY     70     260/  6/  9   N/A
BURNS HARBOR      78     190/  7/ 12 1016.3S
SAINT JOSEPH      68     230/ 14/ 23 1017.9R
SOUTH LAKE BUOY   48 38  210/  8/ 10 1016.2F         0
4 MI NW BRIDGMAN  62 57  290/ 12/ 14   N/A           1/ 2
MICHIGAN CITY     63 56   40/  2/  6   N/A           1/ 2

$$
&&


USA.gov is the U.S. government's official web portal to all federal, state and local government web resources and services.